CZ-4B DEB, 40533

Orbit data source: Space-Track

CZ-4B DEB, 40533 is space debris in LEO originally from a launch on Fri, 25 Oct 2013 UTC launched from the Jiuquan Satellite Launch Center, China (JSC). Debris objects in space refer to the collection of defunct objects orbiting the Earth. Examples of debris include non-operational satellites, rocket bodies, and fragments generated from explosions, collisions, or faulty payload assembly.

Loading next visibility...
Identifier
40533, 2013-057F
Orbit
LEO
Country
Flag of CNCN / PRC
Related business
Manufacturer
SAST
Mission
Spacecraft
Bus & Motor
Unknown
Mass
Unknown
Launch date (UTC)
2013-10-25 (12 years ago)
Launch vehicle
Unknown
Launch site
Jiuquan Satellite Launch Center, China (JSC)
Object type
Payload
Rocket body
Debris
Shape & HBR
Unknown shape, 0.1 m
Radar Cross Section
Small (<0.1 m²)

Expand to show TLE details & history
Last TLE update: 11 hours ago

TLE from 11 hours ago
0 CZ-4B DEB
1 40533U 13057F   25351.42330786  .00004672  00000-0  77126-3 0  9995
2 40533  74.9166 124.5671 0164829 274.4224  83.8132 14.61988899566871
Epoch: 2025-12-17T10:09Z
TLE epoch observation values (Epoch: 2025-12-17T10:09:33.799Z)
Latitude
-0.00005°
Longitude
-114.11712°
Altitude
678.802 km
Speed
7.523 km/s
True Right ascension
08h 18m 16s
True Declination
0° 00' 00"
Sunlit
Object was in full shadow at epoch
Visualization orbit readout
Latitude
Unknown
Longitude
Unknown
Altitude
Unknown
Speed
Unknown
Apparent Right ascension
Unknown
Apparent Declination
Unknown
Sunlit
N/A
Visualization observer readout
Local Sidereal Time
20:21:24
Azimuth
Unknown
Elevation
Unknown
Doppler factor
Unknown
Orbital elements
Apogee altitude
800.689 km
Perigee altitude
567.87 km
Semi-major axis
7,062.417 km
Eccentricity
0.01648
Inclination
74.9166°
RAAN
124.5671°
Arg. of periapsis
274.4224°
True anomaly
85.69484°
Mean anomaly
83.8132°
Eccentric anomaly
84.75364°
Mean motion
3.6569 °/min
Orbital period
98.44 mins
BSTAR
0.00077126
Loading maneuver chart data...
Computing Atmospheric mass density...
Loading historical data...
Loading historical data...
Loading historical data...
Loading historical data...
Loading historical data...
Loading historical data...
Loading historical data...
Other satellites on launch #57 in the year 2013 (2013-10-25 UTC)

Documentation

Showing up to 5 results
|